IRIDIUM 157

Last updated on Tue Sep 22 2026 00:03:21 GMT+0000 (Coordinated Universal Time)

1 43251U 18030C 26263.69929778 .00000087 00000+0 24059-4 0 9991 2 43251 86.3916 250.4658 0002264 88.0192 272.1263 14.34217899443824
UTC large
Height (km)
Speed (km/s)
/
Latitude / Longitude
Inclination (degrees)
Orbital Period (minutes)
Azimuth
Elevation
Range (km)
Doppler Factor

Next 0 passes for location: London (51.5072 / 0.1276)

No passes found over London.
IRIDIUM 157